GFSGL_700_rhum_069.txt.gz
RH
19 28 29 34 40 41 39 35 35 38 44 55 69 76 84 84 84 84 80 82 82 78 72 73 71 68 70 62 56 69 91 98 99 99 99 99 93 99 87 80 94 82 75
34 22 24 34 37 38 42 47 46 47 46 41 41 44 47 52 59 67 69 57 63 64 68 65 54 58 52 56 64 78 100 100 100 99 98 96 91 98 91 86 99 87 89
46 44 40 30 26 29 36 44 47 49 50 51 52 50 48 47 44 43 43 43 43 44 44 44 45 52 92 100 100 100 99 100 99 93 90 80 100 98 77 99 99 100 99
50 52 50 46 45 44 36 33 33 38 43 48 49 50 54 60 62 56 55 59 60 61 66 70 76 81 94 93 99 99 100 100 100 99 100 100 98 84 99 97 88 100 100
35 37 36 49 54 56 55 53 55 47 42 42 45 47 49 52 59 63 62 60 60 65 77 83 80 84 92 97 100 99 100 99 100 99 99 99 85 100 97 99 98 99 100
33 30 24 25 38 51 49 52 57 62 67 69 70 66 54 54 54 57 64 74 82 85 95 87 99 100 99 100 100 100 92 96 97 99 97 86 100 98 99 95 100 100 100
33 33 31 29 23 23 26 27 27 27 25 24 24 36 43 67 78 82 77 68 79 90 95 98 96 99 100 99 100 98 97 92 100 98 97 98 99 99 99 99 98 98 97
36 35 33 32 24 25 28 30 33 34 34 36 38 37 29 29 45 52 69 87 94 88 89 87 95 98 98 94 96 90 87 100 100 99 100 99 99 98 98 98 98 97 86
39 38 38 34 30 28 30 31 32 35 37 39 40 44 48 45 40 55 66 64 62 65 70 74 78 83 87 93 99 99 100 99 99 99 99 98 96 97 96 96 96 88 96
36 34 38 41 38 35 32 32 33 35 39 44 44 46 55 56 52 52 63 69 71 72 77 81 87 91 92 99 100 100 100 99 100 100 97 97 99 98 97 97 99 96 95
40 35 34 36 39 39 37 40 42 41 42 48 52 56 63 54 50 61 60 70 70 66 67 71 76 87 96 95 99 100 100 100 98 98 91 98 98 98 100 99 96 95 94
43 40 41 39 38 38 36 37 38 42 52 52 60 70 68 55 50 72 70 63 70 81 84 80 86 95 100 100 100 99 99 97 97 97 97 97 100 97 96 96 96 96 95
46 43 42 43 41 39 40 40 41 52 59 68 86 85 88 61 50 76 82 60 79 99 100 97 100 100 100 100 99 98 97 98 96 96 96 95 92 94 95 94 88 88 86
45 44 44 44 47 47 47 51 69 75 73 81 80 86 92 71 64 74 79 72 79 91 100 100 100 98 97 97 97 97 96 96 96 94 95 95 94 94 95 92 84 82 81
69 74 66 54 59 61 72 86 76 88 86 98 98 80 90 84 88 93 99 100 100 100 100 99 97 97 96 96 96 96 95 95 93 94 95 93 94 92 85 81 79 80 81
96 97 100 100 99 93 99 100 100 100 99 91 82 80 82 98 99 99 99 99 99 98 97 97 96 96 96 95 95 95 94 94 94 93 90 85 82 81 80 81 82 84 85
95 97 97 99 100 99 92 92 98 99 98 99 99 99 99 98 98 96 96 95 95 96 96 96 96 95 95 95 95 96 93 89 88 83 83 85 85 84 84 82 75 63 56
94 96 98 86 95 94 98 98 99 98 98 98 98 98 97 97 96 97 96 96 96 95 94 95 94 94 95 95 95 95 93 89 84 81 71 49 26 12 8 7 7 8 8
100 100 99 98 95 95 98 99 97 97 98 96 97 96 96 96 96 96 95 95 96 95 95 96 96 95 94 93 90 83 67 40 15 6 6 6 6 7 7 7 8 8 9
100 100 100 100 97 97 96 96 98 97 96 96 95 96 96 97 96 96 95 95 95 96 94 93 90 81 62 31 12 6 6 6 6 7 7 7 7 7 8 9 11 13 18
97 96 94 95 95 96 96 95 96 96 95 95 96 95 95 95 96 98 96 93 88 76 45 17 6 6 6 6 6 7 7 7 7 7 7 8 9 11 13 17 22 30 41
97 96 96 96 96 97 96 95 93 93 93 93 96 94 93 87 67 42 19 8 6 6 5 6 6 6 6 7 7 8 8 8 8 9 11 14 18 21 26 35 45 59 68
95 93 94 93 91 89 86 79 71 64 46 26 15 9 7 6 6 6 5 5 6 6 7 7 8 8 8 8 8 8 9 10 13 17 20 24 28 34 43 53 63 70 76
57 42 28 19 12 9 8 8 7 7 7 6 5 5 5 6 6 7 7 7 8 8 9 9 9 10 9 9 9 11 15 18 21 24 27 32 38 45 51 60 69 75 83
8 8 8 7 6 6 5 5 5 5 6 6 7 7 8 8 9 9 10 10 10 10 10 11 11 10 10 12 15 19 22 24 27 32 36 41 44 51 56 64 74 89 95
6 6 6 6 6 6 6 7 7 7 8 8 9 10 10 11 12 12 12 12 12 12 12 12 12 13 16 20 22 24 27 30 34 38 44 48 51 53 60 79 89 92 95

GFSGL_700_rhum_075.txt.gz
RH
17 19 22 25 26 28 27 35 46 60 75 84 98 99 98 99 99 96 97 99 97 98 96 90 99 100 100 99 98 96 92 96 96 88 82 82 78 72 87 95 100 100 99
28 27 27 26 23 24 27 28 31 33 37 43 58 66 77 85 87 94 98 98 98 89 88 100 98 99 95 86 80 87 95 95 96 87 89 68 74 81 88 94 100 98 100
40 38 38 39 42 38 30 29 32 32 33 39 40 41 42 48 63 57 68 74 77 80 90 92 75 80 74 72 71 77 75 66 71 72 79 88 88 81 80 86 92 99 100
38 43 46 46 45 45 41 35 32 32 33 34 36 40 45 48 47 46 48 49 49 52 57 58 56 56 49 48 51 51 51 56 87 83 99 93 99 98 99 93 82 93 96
43 39 41 45 49 51 53 52 46 41 36 34 36 37 39 40 42 46 50 52 53 55 57 58 59 59 58 57 57 61 61 60 67 71 86 94 100 98 99 99 99 99 100
47 45 45 38 34 40 50 53 56 57 55 49 50 47 45 48 51 49 45 46 48 49 50 52 53 54 56 58 60 62 65 68 74 87 89 97 87 95 100 100 100 98 100
47 49 53 55 44 34 34 36 37 37 49 55 61 63 63 58 55 62 64 59 58 62 66 67 69 71 74 73 73 73 76 78 84 86 90 93 97 91 98 99 99 96 99
53 49 53 56 57 49 42 38 36 31 30 29 32 48 50 31 44 50 50 61 57 50 62 66 67 64 72 84 88 90 93 96 99 100 98 98 100 100 100 100 99 100 100
56 52 54 53 51 50 58 56 44 40 37 30 30 28 31 31 41 36 45 50 51 56 50 49 53 57 65 78 92 99 100 100 99 100 100 100 93 98 97 100 100 100 100
51 51 53 55 50 54 59 56 58 58 56 55 49 41 34 31 32 34 38 43 46 50 55 60 60 65 83 91 91 92 97 99 98 98 100 98 99 92 82 99 99 93 97
55 50 52 54 55 56 60 63 64 63 62 68 70 69 65 62 57 49 46 47 48 50 55 64 76 86 98 100 100 100 100 100 100 100 100 100 100 99 99 100 99 97 96
52 59 58 56 55 59 61 64 66 68 68 68 72 79 88 99 93 94 78 78 74 70 69 88 92 84 100 100 100 100 99 100 99 99 98 100 100 99 97 96 96 98 95
48 45 45 45 52 57 57 62 66 64 72 74 82 78 86 97 93 100 100 99 90 90 86 89 98 98 99 100 100 99 99 99 100 98 98 96 96 96 96 97 95 96 96
59 61 54 48 41 41 56 60 62 71 75 92 100 100 89 99 99 100 99 90 100 98 99 99 100 99 98 99 98 99 99 99 97 96 96 96 95 95 95 95 95 93 95
69 74 76 69 56 47 49 47 80 93 92 97 100 100 100 100 99 99 100 100 100 99 100 99 98 99 98 99 99 96 96 95 95 95 95 96 96 96 94 94 93 92 84
55 63 85 89 81 65 55 60 61 75 94 87 89 97 95 98 96 97 96 99 97 97 97 96 95 97 96 95 96 96 96 96 94 95 95 96 95 95 93 84 57 20 5
50 57 90 98 88 73 65 61 62 82 70 70 80 85 88 94 96 95 96 98 87 88 95 97 95 96 95 96 95 96 96 94 95 95 95 89 74 30 6 5 5 5 5
94 97 95 95 90 88 81 81 89 96 100 98 96 98 99 93 94 96 96 93 94 94 95 95 96 95 94 94 94 96 90 86 74 39 11 5 5 5 5 6 6 7 7
99 98 97 96 98 100 100 100 100 100 97 98 97 97 95 96 95 95 94 95 95 97 97 95 98 95 95 94 91 67 29 7 5 5 5 5 6 6 7 7 7 8 8
93 93 94 95 96 96 96 97 95 96 97 96 95 97 97 97 97 96 96 96 96 96 94 94 89 81 58 21 6 5 5 5 5 6 7 8 8 8 8 9 10 12 13
94 95 96 96 95 95 95 96 96 96 96 97 97 96 97 97 94 92 78 46 28 12 8 6 5 5 5 6 6 6 7 7 8 9 9 9 8 8 10 13 15 17 18
98 97 98 97 97 96 95 95 93 84 66 50 36 23 15 8 7 6 6 6 5 5 6 6 6 7 7 7 7 8 9 9 10 9 9 9 10 13 16 17 18 19 20
96 96 94 87 76 47 21 11 8 8 7 7 6 6 5 5 5 6 6 7 8 8 8 8 8 9 9 9 9 10 10 10 10 10 10 12 15 17 18 19 20 23 26
19 10 9 8 8 7 6 6 6 6 6 6 6 6 7 7 7 8 8 8 9 9 10 10 10 10 10 10 10 11 11 11 10 11 13 16 17 18 19 22 27 31 40
8 8 7 7 6 6 6 6 7 7 7 8 8 8 8 8 9 10 10 10 11 11 11 11 11 11 12 13 13 13 12 12 12 15 18 18 19 22 27 32 39 51 59
8 8 7 7 7 8 8 8 9 10 10 10 11 11 12 11 12 13 12 13 14 14 14 15 15 15 15 16 15 14 14 15 18 20 21 23 27 31 35 47 59 62 64

GFSGL_700_rhum_078.txt.gz
RH
17 21 24 25 26 30 41 60 73 86 91 87 92 99 85 97 90 90 91 93 89 90 95 98 97 95 95 95 99 97 98 100 99 80 87 77 79 82 84 85 86 75 79
29 27 26 25 24 26 30 29 33 38 50 73 89 87 94 77 92 100 100 95 89 93 96 99 94 91 86 88 94 98 100 100 100 96 80 80 86 86 77 74 73 81 92
37 37 40 43 44 35 28 31 32 35 39 44 49 60 67 75 87 88 93 98 99 93 93 93 94 100 98 97 98 99 100 100 98 92 83 83 85 65 70 79 89 92 94
36 37 40 42 44 44 40 35 32 34 35 36 38 41 45 50 60 69 74 77 78 76 79 80 81 90 84 91 96 92 93 94 84 81 71 64 64 69 77 73 81 87 92
54 50 45 42 42 42 46 47 45 40 35 35 37 40 44 45 45 48 51 54 57 62 65 57 58 64 68 71 80 70 74 79 73 66 64 65 65 64 70 77 84 86 89
56 53 56 57 58 59 60 58 55 55 54 50 45 39 37 38 39 41 44 46 49 50 51 53 54 56 56 57 59 60 66 66 68 68 62 63 65 70 77 86 89 93 93
56 55 54 55 54 52 52 51 50 54 58 55 57 60 59 57 52 48 45 46 46 47 48 49 50 52 53 53 54 56 60 65 64 65 68 74 82 90 87 98 97 95 78
59 58 58 56 53 52 52 54 50 51 53 54 55 55 59 56 65 66 65 62 62 64 64 64 64 65 64 66 65 67 68 71 74 78 87 88 91 98 100 98 99 99 100
48 52 54 56 58 59 59 58 58 56 56 59 61 62 68 57 60 59 62 68 68 60 63 66 63 58 56 62 70 71 74 81 80 92 100 99 99 100 100 100 99 100 98
57 52 51 51 52 54 56 57 59 62 58 59 63 62 62 66 69 73 69 71 70 67 63 68 67 52 53 54 67 60 74 85 96 96 91 99 100 100 99 99 100 100 99
58 59 58 58 60 55 53 52 56 60 62 63 66 68 80 82 87 80 72 70 84 99 100 96 93 77 65 62 74 98 100 100 100 100 100 98 99 99 99 99 98 99 98
44 42 47 54 57 58 59 58 57 56 57 65 71 74 75 73 76 75 76 79 97 97 100 97 92 95 100 100 100 100 100 100 100 100 100 99 99 98 98 98 98 98 96
29 30 30 35 40 41 41 43 48 63 67 69 74 78 89 98 81 83 99 96 81 93 98 100 98 100 99 100 100 100 100 100 98 97 97 98 97 98 95 97 96 96 95
29 28 27 27 29 32 42 48 48 52 47 51 69 95 100 100 98 99 100 99 95 99 98 99 100 100 100 100 99 98 98 98 96 96 96 96 96 95 95 95 96 97 95
34 35 35 36 37 37 40 53 69 70 58 56 55 66 66 80 85 85 95 96 98 96 90 84 92 96 95 95 95 96 96 95 96 94 94 96 95 94 95 95 95 94 87
32 35 37 43 47 45 51 70 80 75 63 57 61 64 67 76 85 90 88 88 89 94 88 90 94 91 90 92 94 95 95 95 99 96 92 95 96 96 92 87 67 31 6
40 40 40 46 58 71 77 80 80 76 73 76 91 97 96 92 89 87 90 95 96 96 97 97 98 95 96 96 96 95 94 96 98 96 94 95 95 75 39 12 5 4 4
47 51 57 67 76 80 84 88 92 93 94 98 98 99 97 96 95 96 96 95 96 96 96 95 97 96 95 95 95 95 96 95 95 86 49 13 5 5 4 5 6 6 6
70 76 80 82 83 85 87 90 95 97 98 98 97 97 97 96 96 96 96 96 96 96 96 95 95 94 95 94 93 73 48 24 8 5 5 5 6 6 6 7 7 7 7
83 83 84 87 89 90 91 90 93 95 96 97 96 94 95 96 96 96 96 96 96 96 93 78 44 17 7 5 5 5 5 6 6 6 7 8 8 8 8 8 8 9 10
89 89 90 91 92 92 93 93 94 96 97 96 96 96 95 90 78 47 30 14 7 6 6 6 5 5 5 6 6 6 6 7 7 9 9 9 9 9 9 9 10 11 13
94 96 95 96 94 94 91 86 79 62 49 36 27 20 14 8 6 6 5 5 6 6 7 7 7 8 8 8 8 8 9 10 10 10 10 10 10 10 11 13 15 15 16
94 86 70 50 35 24 17 14 13 10 7 6 6 6 5 6 6 6 6 7 8 8 8 9 9 9 10 10 10 11 11 11 11 11 11 10 11 13 15 16 16 17 17
20 12 10 9 8 7 7 7 6 6 6 6 7 7 8 8 8 8 9 9 10 11 11 11 12 12 12 12 12 12 12 12 12 12 12 12 14 16 17 16 16 19 26
10 9 9 8 8 7 7 7 7 8 8 8 9 10 10 11 12 12 12 12 13 14 14 14 15 15 14 14 14 14 14 14 14 13 14 16 18 18 18 19 22 29 40
10 9 9 8 9 9 9 10 10 10 10 10 11 11 11 11 12 12 13 13 14 14 15 15 15 16 17 18 18 18 18 17 16 16 17 19 20 20 23 26 33 47 50

GFSGL_700_rhum_084.txt.gz
RH
21 25 27 30 45 67 81 87 85 81 84 87 90 98 100 91 98 88 96 86 91 100 100 99 100 100 99 99 99 99 98 100 99 96 99 97 99 100 98 99 100 99 100
19 24 27 29 30 42 74 78 77 82 84 83 86 94 99 100 94 97 100 100 100 99 100 100 99 100 98 99 98 96 95 93 98 98 85 96 92 94 98 96 92 94 91
20 22 27 28 30 34 36 49 62 69 76 77 79 84 94 90 86 91 95 100 99 94 92 92 95 97 98 98 96 96 96 100 100 100 97 98 94 96 90 88 82 78 82
28 27 30 33 31 32 36 39 40 41 42 46 55 67 77 79 81 89 97 92 82 88 98 99 99 99 98 100 100 100 100 100 99 100 100 97 97 99 100 90 66 68 64
29 33 35 41 39 35 32 32 36 39 43 47 50 51 54 58 66 71 76 80 83 86 82 82 84 85 84 88 100 99 100 99 99 98 98 98 98 97 83 80 78 68 68
36 33 34 40 43 42 43 44 42 38 36 35 36 38 43 49 59 69 74 75 76 72 66 69 75 86 87 98 99 100 100 100 87 83 87 86 76 74 73 76 73 67 57
58 57 55 54 51 49 48 48 49 50 53 54 55 53 50 47 47 47 49 48 47 46 47 50 54 58 60 60 62 69 68 67 81 95 93 81 70 74 84 60 57 60 62
68 64 62 61 63 65 65 59 58 58 59 64 67 69 69 71 64 66 68 79 81 76 74 72 72 67 64 58 53 54 56 61 60 65 85 89 82 70 72 74 83 92 95
62 58 53 50 55 59 57 58 60 61 59 60 63 66 71 77 74 76 78 80 82 85 90 97 98 99 98 92 100 99 100 99 97 98 95 98 98 97 100 100 100 100 99
53 53 52 53 63 59 52 51 52 50 56 63 66 68 73 78 80 84 87 92 98 99 100 97 95 90 83 100 100 94 96 100 99 99 100 99 100 92 95 100 99 100 100
58 60 61 63 62 59 59 61 66 68 57 56 58 58 62 61 65 73 75 79 87 93 98 100 97 99 94 95 97 93 99 100 98 99 99 99 98 96 98 99 99 96 99
34 41 51 54 57 56 57 58 57 55 55 55 54 54 56 58 62 64 65 68 71 80 96 99 98 98 98 96 97 92 99 98 90 84 81 100 99 98 100 100 97 93 96
42 38 38 39 40 40 38 35 33 32 34 35 36 36 34 32 32 35 38 41 43 50 64 69 70 74 82 79 78 71 69 79 77 89 99 100 99 97 96 97 93 95 98
32 30 28 26 25 23 20 20 21 21 23 24 26 27 28 31 35 43 51 56 54 53 54 55 55 55 54 55 62 73 76 82 88 95 99 98 96 97 97 96 97 99 97
28 29 28 26 24 23 22 21 21 23 22 22 23 26 28 29 35 42 50 58 63 67 71 71 71 71 72 76 82 86 89 92 94 95 95 95 95 96 96 96 96 94 94
32 34 33 31 29 28 26 28 31 33 38 46 53 57 62 65 66 67 68 70 73 75 80 84 86 85 84 86 88 90 92 95 97 98 98 97 96 96 95 95 94 91 83
29 31 32 33 35 39 39 42 46 47 51 52 55 57 62 66 70 72 74 77 82 86 88 89 90 91 90 90 91 91 92 92 93 93 94 94 94 93 86 47 15 5 4
49 50 53 56 58 60 60 59 62 64 67 70 74 78 81 83 85 87 88 87 88 88 89 89 89 88 88 87 87 88 90 90 90 82 62 39 18 7 4 5 5 6 6
69 69 71 73 74 76 76 76 79 80 80 81 85 87 86 87 88 88 88 88 88 89 90 90 88 85 82 77 70 56 42 24 12 6 5 5 5 5 6 6 6 6 6
78 78 80 81 82 82 85 88 89 89 88 87 87 86 84 84 81 78 72 68 62 52 39 26 20 16 13 10 7 6 6 6 6 6 6 6 7 7 7 7 7 7 7
80 82 83 85 84 84 87 89 87 85 81 74 64 54 43 31 24 19 14 10 8 6 6 5 5 6 6 6 6 6 6 7 7 7 8 8 8 8 8 8 8 9 9
83 83 83 82 81 77 69 60 44 31 22 14 10 8 8 7 6 6 6 6 6 6 6 7 7 7 8 8 8 9 9 9 10 10 10 10 10 10 10 10 10 10 11
80 78 72 60 44 30 20 14 11 10 9 9 8 7 7 7 7 7 7 8 8 8 8 9 9 10 10 11 11 11 11 12 12 12 12 12 12 12 12 12 12 13 14
64 56 44 33 23 17 14 12 10 9 8 8 8 8 8 8 9 9 9 9 9 9 9 10 10 11 11 12 12 12 13 14 14 15 15 16 16 16 16 15 15 17 17
17 15 14 13 12 12 11 10 10 9 9 10 10 11 11 11 12 12 12 12 12 12 12 13 13 14 14 14 15 15 16 17 19 20 21 21 21 20 19 18 19 20 21
17 16 15 14 13 12 12 11 12 13 13 13 13 13 13 13 13 12 13 13 13 13 14 14 14 14 15 16 19 21 22 24 25 27 28 28 27 26 24 24 26 27 29

GFSGL_700_rhum_087.txt.gz
RH
19 25 25 30 42 69 83 86 91 98 97 97 98 100 100 99 100 99 100 100 98 99 100 99 99 100 100 99 99 98 99 94 98 91 97 96 100 100 99 99 100 99 100
21 26 28 30 32 63 77 86 82 83 89 94 98 100 100 100 100 97 100 86 98 93 99 100 100 100 99 100 99 99 99 100 100 99 96 88 83 90 98 100 96 96 100
19 25 27 31 36 42 71 81 82 79 83 83 81 84 87 97 99 97 100 100 100 100 100 100 97 99 99 100 98 98 100 100 99 100 92 85 87 87 83 80 79 86 88
18 22 28 29 31 37 43 58 70 70 72 77 79 83 86 90 94 92 99 95 91 92 98 99 98 97 99 100 100 99 99 99 99 99 98 97 99 96 94 91 85 85 72
23 23 26 34 33 31 33 38 41 46 50 54 59 64 70 74 81 84 85 84 85 92 91 84 77 83 90 90 93 85 85 86 90 95 98 98 94 97 99 100 96 88 72
27 31 31 40 42 38 37 35 34 35 36 37 39 42 49 58 59 63 69 70 70 68 67 69 76 84 83 87 94 99 100 100 99 98 100 100 99 98 99 97 97 77 56
34 32 33 35 39 42 41 41 42 42 43 43 42 41 40 40 40 41 42 43 45 47 51 59 61 60 69 77 79 84 83 87 99 100 98 98 100 97 96 81 77 86 94
75 67 63 55 54 54 58 60 59 57 59 61 63 64 63 62 62 66 68 68 67 69 70 70 80 86 90 90 90 94 90 85 92 99 100 100 100 100 99 100 100 100 100
75 71 64 63 61 63 62 62 61 60 63 63 63 63 65 64 63 66 73 79 90 96 97 98 99 100 92 95 86 99 100 96 97 93 96 96 100 100 98 100 100 99 99
95 64 58 54 52 58 61 62 62 66 67 67 68 66 65 66 67 68 70 74 87 95 81 91 90 93 88 91 88 100 100 100 99 99 100 100 90 96 95 98 93 93 97
94 76 63 62 60 59 60 62 65 66 64 60 66 66 63 60 65 70 71 72 79 88 91 93 97 98 97 100 100 99 99 89 100 99 90 88 87 78 73 72 77 88 100
71 58 52 46 53 54 59 61 62 63 65 66 67 67 63 59 56 53 52 52 53 55 55 59 60 62 71 84 89 90 80 79 81 74 63 62 65 67 71 78 89 96 96
57 54 49 50 58 57 52 49 49 47 45 44 42 40 36 33 30 28 24 23 24 29 35 41 47 49 51 54 55 56 56 57 57 57 63 68 73 78 84 89 90 90 91
54 50 44 39 35 30 25 25 26 24 24 24 24 25 25 24 22 23 24 26 32 40 45 50 54 57 60 62 64 66 68 69 72 75 78 82 84 85 86 86 88 90 91
35 33 36 32 28 28 27 26 25 24 23 24 26 26 27 31 31 32 35 43 48 53 60 65 68 68 69 74 78 80 82 84 86 89 91 91 90 90 89 88 88 88 88
35 34 31 30 30 29 29 29 27 26 26 27 31 35 37 36 41 45 49 54 60 65 67 70 72 75 78 81 83 84 85 86 88 89 90 89 88 85 84 82 80 79 73
28 28 28 28 29 28 26 27 27 30 32 36 41 42 46 49 50 54 60 62 64 67 72 75 77 81 83 83 83 84 83 84 84 84 84 82 79 69 50 28 14 10 5
45 46 47 46 46 46 44 46 47 50 50 54 56 57 60 64 66 69 72 73 75 76 78 79 80 81 80 80 80 80 79 76 70 57 43 25 14 9 7 6 5 5 5
67 67 67 66 64 64 68 68 66 65 67 71 72 73 74 78 79 80 79 78 78 78 75 73 70 61 50 39 30 23 18 13 9 6 6 6 6 6 6 6 7 7 7
74 73 72 72 73 74 72 72 73 75 77 79 79 78 76 73 67 60 51 42 33 26 19 14 11 8 6 6 6 6 6 6 6 6 7 7 7 8 8 8 8 8 8
73 73 75 76 76 76 76 76 76 72 65 57 49 36 23 16 11 9 8 7 7 7 6 6 6 6 6 6 6 7 7 8 8 9 9 9 10 10 10 9 9 9 9
70 72 73 73 74 71 64 54 43 32 24 19 14 11 10 9 8 8 7 7 7 7 7 7 7 8 8 8 8 9 10 10 10 11 11 11 12 11 11 11 11 11 11
74 74 73 70 65 55 43 31 24 19 15 13 11 10 9 8 8 8 8 8 8 8 8 9 9 9 9 10 10 11 12 12 12 13 13 14 14 15 15 15 15 15 14
48 43 37 30 23 19 16 14 13 12 11 11 10 9 9 9 10 10 11 11 11 11 11 12 12 12 13 13 14 14 14 15 16 16 17 17 18 19 19 19 20 19 18
30 26 22 20 18 16 15 14 13 12 11 11 11 12 12 13 13 13 13 13 13 13 13 13 13 13 12 12 12 12 12 13 15 17 19 22 25 27 27 27 26 24 22
28 24 21 19 17 16 15 14 13 14 14 15 15 15 15 15 14 13 14 14 14 13 12 12 12 12 13 14 16 16 18 19 20 21 22 25 30 35 37 36 34 30 29